Location: Rowland
(34.5359°N, 79.2929°W)
Time: 14:45:58
(UTC+00:00)

Transit 4A - Pass Details

Date: 05 October 2022
Orbit: 871 x 972 km, 66.8° (Epoch: 29 November)

Event Time Altitude Azimuth Distance (km) Brightness Sun altitude
Rises 12:48:44 0° 323° (NW) 3,471 10.4 18.0°
Reaches altitude 10° 12:51:24 10° 315° (NW) 2,524 9.7 18.5°
Maximum altitude 12:56:38 36° 251° (WSW) 1,357 8.6 19.5°
Drops below altitude 10° 13:01:51 10° 187° (S) 2,516 10.4 20.5°
Sets 13:04:31 0° 178° (S) 3,458 11.2 21.0°
